Bloomington, IN

5:34 PM EDT on August 27, 2016 (GMT -0400)
Monroe County

Weather History for KBMG - December, 2012

Change the Weather History Date:

Friday, December 7, 2012

  Actual Average Record
Temperature  
Mean Temperature 51 °F 34 °F  
Max Temperature 54 °F 43 °F 61 °F (2004)
Min Temperature 47 °F 26 °F 4 °F (2008)
Degree Days  
Heating Degree Days 14 31  
Month to date heating degree days 92 206  
Since 1 July heating degree days 1308 1262  
Cooling Degree Days 0 0  
Month to date cooling degree days 1 0  
Year to date cooling degree days 1310 927  
Moisture  
Dew Point 49 °F    
Average Humidity 93    
Maximum Humidity 100    
Minimum Humidity 86    
Precipitation  
Precipitation 0.10 in 0.11 in 0.56 in (2004)
Month to date precipitation 0.38 0.74  
Year to date precipitation 29.21 44.75  
Sea Level Pressure  
Sea Level Pressure 29.88 in    
Wind  
Wind Speed 3 mph (SE)    
Max Wind Speed 10 mph    
Max Gust Speed 14 mph    
Visibility 2 miles    
Events Fog , Rain    
T = Trace of Precipitation, MM = Missing Value Source: NWS Daily Summary

Daily Weather History Graph

Daily Weather History Graph

Search for Another Location

Airport or City:

Trip Planner

Search our weather history database for the weather conditions in past years. The results will help you decide how hot, cold, wet, or windy it might be!

Date:

Astronomy

Dec. 07, 2012 Rise Set
Actual Time 7:52 AM EST 5:23 PM EST
Civil Twilight 7:22 AM EST 5:53 PM EST
Nautical Twilight 6:49 AM EST 6:26 PM EST
Astronomical Twilight 6:17 AM EST 6:59 PM EST
Moon 1:13 AM EST (12/7) 1:18 PM EST (12/7)
Length of Visible Light 10h 30m
Length of Day
9h 30m
Last Quarter, 39% of the Moon is Illuminated
Dec 7
Last Quarter
Dec 13
New
Dec 20
First Quarter
Dec 28
Full
Jan 4
Last Quarter

Hourly Weather History & Observations

Time (EST) Temp. Windchill Dew Point Humidity Pressure Visibility Wind Dir Wind Speed Gust Speed Precip Events Conditions
12:53 AM 46.9 °F - 44.1 °F 90% 29.96 in 9.0 mi Calm Calm - N/A   Overcast
1:53 AM 48.0 °F - 45.0 °F 89% 29.96 in 8.0 mi Calm Calm - N/A   Overcast
2:53 AM 48.0 °F - 46.9 °F 96% 29.96 in 4.0 mi Calm Calm - N/A   Overcast
3:45 AM 46.4 °F 45.2 °F 46.4 °F 100% 29.94 in 2.5 mi SE 3.5 mph - N/A   Overcast
3:53 AM 46.9 °F - 46.0 °F 97% 29.94 in 2.0 mi East 3.5 mph - N/A   Overcast
4:01 AM 46.4 °F - 46.4 °F 100% 29.94 in 1.2 mi Calm Calm - N/A   Overcast
4:14 AM 46.4 °F - 46.4 °F 100% 29.94 in 0.5 mi Calm Calm - N/A Fog Fog
4:33 AM 46.4 °F 45.2 °F 46.4 °F 100% 29.94 in 0.2 mi SE 3.5 mph - N/A Fog Fog
4:53 AM 46.9 °F - 46.0 °F 97% 29.94 in 0.2 mi Calm Calm - N/A Fog Fog
5:53 AM 46.9 °F - 46.0 °F 97% 29.94 in 0.2 mi Calm Calm - N/A Fog Fog
6:07 AM 46.4 °F - 46.4 °F 100% 29.93 in 0.2 mi Calm Calm - N/A Fog Fog
6:53 AM 46.9 °F - 46.9 °F 100% 29.94 in 0.2 mi Calm Calm - N/A Fog Fog
7:33 AM 46.4 °F 44.3 °F 46.4 °F 100% 29.95 in 0.2 mi SSE 4.6 mph - 0.01 in Fog Fog
7:53 AM 46.9 °F - 46.0 °F 97% 29.95 in 0.2 mi SE 3.5 mph - 0.01 in Fog Fog
8:23 AM 46.4 °F - 46.4 °F 100% 29.95 in 0.2 mi Calm Calm - 0.00 in Fog , Rain Light Rain
8:53 AM 46.9 °F - 46.9 °F 100% 29.95 in 0.2 mi ESE 3.5 mph - 0.00 in Fog Fog
9:53 AM 48.0 °F - 48.0 °F 100% 29.94 in 0.8 mi East 3.5 mph - 0.00 in Rain Light Rain
10:53 AM 50.0 °F - 48.9 °F 96% 29.94 in 0.5 mi ENE 3.5 mph - 0.03 in Fog , Rain Rain
11:00 AM 48.2 °F - 48.2 °F 100% 29.93 in 1.8 mi NE 3.5 mph - 0.00 in Rain Rain
11:13 AM 48.2 °F - 48.2 °F 100% 29.93 in 2.0 mi ENE 3.5 mph - N/A Rain Rain
11:22 AM 48.2 °F - 48.2 °F 100% 29.92 in 2.0 mi ENE 4.6 mph - N/A Rain Rain
11:28 AM 48.2 °F - 48.2 °F 100% 29.92 in 2.0 mi ENE 4.6 mph - N/A Rain Rain
11:53 AM 50.0 °F - 48.9 °F 96% 29.92 in 2.5 mi ENE 3.5 mph - N/A Rain Rain
12:14 PM 50.0 °F - 48.2 °F 94% 29.90 in 3.0 mi NE 4.6 mph - N/A Rain Rain
12:53 PM 50.0 °F - 48.9 °F 96% 29.88 in 3.0 mi East 4.6 mph - N/A Rain Light Rain
1:53 PM 51.1 °F - 50.0 °F 96% 29.85 in 3.0 mi East 6.9 mph - 0.00 in   Overcast
2:09 PM 51.8 °F - 50.0 °F 94% 29.84 in 2.0 mi ESE 4.6 mph - 0.01 in   Overcast
2:21 PM 50.0 °F - 48.2 °F 94% 29.83 in 1.2 mi East 5.8 mph - 0.01 in   Overcast
2:53 PM 50.0 °F - 50.0 °F 100% 29.84 in 1.2 mi ESE 3.5 mph - 0.01 in Rain Light Rain
3:53 PM 50.0 °F - 50.0 °F 100% 29.83 in 0.8 mi SE 5.8 mph - 0.01 in   Overcast
4:17 PM 51.8 °F - 50.0 °F 94% 29.82 in 1.0 mi SE 6.9 mph - N/A   Overcast
4:38 PM 51.8 °F - 50.0 °F 94% 29.82 in 0.8 mi SSE 4.6 mph - N/A   Overcast
4:53 PM 51.1 °F - 51.1 °F 100% 29.82 in 0.5 mi Calm Calm - N/A Fog Fog
5:00 PM 51.8 °F - 50.0 °F 94% 29.82 in 0.2 mi South 4.6 mph - N/A Fog Fog
5:20 PM 51.8 °F - 50.0 °F 94% 29.81 in 0.5 mi SSE 4.6 mph - N/A Fog Fog
5:32 PM 51.8 °F - 51.8 °F 100% 29.81 in 0.2 mi Calm Calm - N/A Fog Fog
5:53 PM 51.1 °F - 50.0 °F 96% 29.82 in 0.2 mi SSE 4.6 mph - N/A Fog Fog
6:04 PM 51.8 °F - 51.8 °F 100% 29.81 in 0.5 mi SSE 3.5 mph - 0.00 in Fog , Rain Light Rain
6:21 PM 51.8 °F - 51.8 °F 100% 29.81 in 1.8 mi SSE 3.5 mph - 0.01 in Rain Light Rain
6:26 PM 51.8 °F - 51.8 °F 100% 29.81 in 2.5 mi Calm Calm - 0.01 in Rain Light Rain
6:35 PM 51.8 °F - 51.8 °F 100% 29.81 in 3.0 mi Calm Calm - 0.01 in Rain Light Rain
6:53 PM 51.1 °F - 51.1 °F 100% 29.82 in 4.0 mi SSW 3.5 mph - 0.01 in   Overcast
7:07 PM 51.8 °F - 51.8 °F 100% 29.82 in 4.0 mi SW 4.6 mph - N/A   Overcast
7:33 PM 53.6 °F - 51.8 °F 94% 29.83 in 6.0 mi WSW 8.1 mph - N/A   Mostly Cloudy
7:44 PM 53.6 °F - 51.8 °F 94% 29.83 in 6.0 mi West 8.1 mph - N/A   Mostly Cloudy
8:53 PM 53.1 °F - 51.1 °F 93% 29.85 in 6.0 mi West 5.8 mph - N/A   Overcast
9:04 PM 53.6 °F - 51.8 °F 94% 29.85 in 6.0 mi West 5.8 mph - N/A   Overcast
9:30 PM 51.8 °F - 51.8 °F 100% 29.84 in 5.0 mi West 6.9 mph - N/A   Overcast
9:53 PM 52.0 °F - 51.1 °F 97% 29.85 in 5.0 mi WSW 4.6 mph - N/A   Overcast
10:09 PM 51.8 °F - 51.8 °F 100% 29.85 in 4.0 mi WSW 4.6 mph - N/A   Overcast
10:53 PM 52.0 °F - 51.1 °F 97% 29.85 in 4.0 mi West 4.6 mph - N/A   Overcast
11:53 PM 52.0 °F - 50.0 °F 93% 29.85 in 4.0 mi WSW 4.6 mph - N/A   Overcast